Omaha, NE

3:58 PM CDT on March 25, 2017 (GMT -0500)
Eppley Airfield

Weather History for KOMA - October, 2012

Change the Weather History Date:

Tuesday, October 30, 2012

  Actual Average Record
Temperature  
Mean Temperature 45 °F 48 °F  
Max Temperature 54 °F 58 °F 83 °F (1950)
Min Temperature 35 °F 37 °F 11 °F (1925)
Degree Days  
Heating Degree Days 20 18  
Month to date heating degree days 407 364  
Since 1 July heating degree days 499 467  
Cooling Degree Days 0 0  
Month to date cooling degree days 2 12  
Year to date cooling degree days 1649 1109  
Moisture  
Dew Point 28 °F    
Average Humidity 59    
Maximum Humidity 82    
Minimum Humidity 35    
Precipitation  
Precipitation 0.00 in 0.06 in 2.57 in (1979)
Month to date precipitation 2.07 2.09  
Year to date precipitation 20.38 27.88  
Snow  
Snow 0.00 in 0.00 in - ()
Month to date snowfall 0.0 0.3  
Since 1 July snowfall 0.0 0.3  
Snow Depth 0.00 in    
Sea Level Pressure  
Sea Level Pressure 30.10 in    
Wind  
Wind Speed 7 mph (ESE)    
Max Wind Speed 14 mph    
Max Gust Speed 17 mph    
Visibility 10 miles    
Events      
T = Trace of Precipitation, MM = Missing Value Source: NWS Daily Summary

Daily Weather History Graph

Daily Weather History Graph

Search for Another Location

Airport or City:

Trip Planner

Search our weather history database for the weather conditions in past years. The results will help you decide how hot, cold, wet, or windy it might be!

Date:

Astronomy

Oct. 30, 2012 Rise Set
Actual Time 7:53 AM CDT 6:20 PM CDT
Civil Twilight 7:24 AM CDT 6:49 PM CDT
Nautical Twilight 6:51 AM CDT 7:21 PM CDT
Astronomical Twilight 6:19 AM CDT 7:53 PM CDT
Moon 6:50 PM CDT (10/30) 8:41 AM CDT (10/30)
Length of Visible Light 11h 24m
Length of Day
10h 27m
Full, 99% of the Moon is Illuminated
Oct 30
Full
Nov 6
Last Quarter
Nov 13
New
Nov 20
First Quarter
Nov 28
Full

Hourly Weather History & Observations

Time (CDT) Temp. Windchill Dew Point Humidity Pressure Visibility Wind Dir Wind Speed Gust Speed Precip Events Conditions
12:52 AM 42.1 °F 36.1 °F 30.0 °F 62% 30.14 in 10.0 mi SE 10.4 mph - N/A   Clear
1:52 AM 39.9 °F 33.9 °F 30.0 °F 68% 30.14 in 10.0 mi SE 9.2 mph - N/A   Clear
2:52 AM 39.0 °F 32.8 °F 28.9 °F 67% 30.12 in 10.0 mi SE 9.2 mph - N/A   Clear
3:52 AM 39.0 °F 34.0 °F 28.9 °F 67% 30.11 in 10.0 mi SE 6.9 mph - N/A   Scattered Clouds
4:52 AM 37.9 °F 32.7 °F 28.9 °F 70% 30.11 in 10.0 mi ESE 6.9 mph - N/A   Scattered Clouds
5:52 AM 37.9 °F 32.1 °F 28.9 °F 70% 30.12 in 10.0 mi SE 8.1 mph - N/A   Scattered Clouds
6:52 AM 37.9 °F 33.5 °F 28.9 °F 70% 30.10 in 10.0 mi SE 5.8 mph - N/A   Mostly Cloudy
7:52 AM 37.9 °F 32.7 °F 28.9 °F 70% 30.11 in 10.0 mi SE 6.9 mph - N/A   Mostly Cloudy
8:52 AM 39.0 °F 32.3 °F 28.9 °F 67% 30.12 in 10.0 mi ESE 10.4 mph - N/A   Mostly Cloudy
9:52 AM 41.0 °F 35.2 °F 28.9 °F 62% 30.12 in 10.0 mi ESE 9.2 mph - N/A   Overcast
10:52 AM 44.1 °F 38.6 °F 28.9 °F 55% 30.12 in 10.0 mi ESE 10.4 mph - N/A   Overcast
11:52 AM 46.0 °F 41.4 °F 27.0 °F 47% 30.12 in 10.0 mi SE 9.2 mph - N/A   Overcast
12:52 PM 48.0 °F - 27.0 °F 44% 30.11 in 10.0 mi ESE 10.4 mph - N/A   Mostly Cloudy
1:52 PM 50.0 °F - 24.1 °F 36% 30.09 in 10.0 mi ESE 9.2 mph - N/A   Mostly Cloudy
2:52 PM 52.0 °F - 24.1 °F 34% 30.07 in 10.0 mi ESE 8.1 mph - N/A   Scattered Clouds
3:52 PM 54.0 °F - 27.0 °F 35% 30.06 in 10.0 mi ESE 3.5 mph - N/A   Scattered Clouds
4:52 PM 53.1 °F - 26.1 °F 35% 30.06 in 10.0 mi East 5.8 mph - N/A   Scattered Clouds
5:52 PM 51.8 °F - 28.4 °F 41% 30.05 in 10.0 mi NE 3.5 mph - N/A   Scattered Clouds
6:52 PM 48.2 °F - 28.4 °F 46% 30.05 in 10.0 mi NE 4.6 mph - N/A   Scattered Clouds
7:52 PM 42.1 °F - 30.9 °F 65% 30.08 in 10.0 mi Calm Calm - N/A   Partly Cloudy
8:52 PM 41.0 °F 39.0 °F 30.0 °F 65% 30.08 in 10.0 mi North 3.5 mph - N/A   Partly Cloudy
9:52 PM 39.9 °F 35.8 °F 28.9 °F 65% 30.08 in 10.0 mi NW 5.8 mph - N/A   Partly Cloudy
10:52 PM 35.1 °F 30.1 °F 27.0 °F 72% 30.08 in 10.0 mi NNW 5.8 mph - N/A   Partly Cloudy
11:52 PM 36.0 °F 30.3 °F 30.0 °F 79% 30.09 in 10.0 mi NW 6.9 mph - N/A   Scattered Clouds